Location: Juzet
(42.9779°N, 0.7597°E)
Time: 02:26:40
(UTC+00:00)

Cosmos 1666 Rocket - Pass Details

Date: 14 July 2020
Orbit: 603 x 634 km, 82.5° (Epoch: 04 August)

Event Time Altitude Azimuth Distance (km) Brightness Sun altitude
Exits shadow 00:23:49 69° 315° (NW) 661 3.7 -25.2°
Drops below altitude 10° 00:27:53 10° 4° (N) 1,976 7.2 -25.1°
Sets 00:30:07 0° 7° (N) 2,881 8.4 -25.1°
